[[{"header":{"parameterUnit":"m.s-1","parameterCategory":1,"la1":30.2991,"la2":30.254,"lo1":-89.0895,"lo2":-89.0444,"dy":0.0017,"dx":0.0017,"nx":28,"ny":28,"refTime":"2025-08-29T03:00:00:Z","depth":0,"parameterNumber":2,"parameterNumberName":"U-component_of_WINDS"},"data":[0,0,0,0,0,0,0,0,0,0,0,0,0,0,0,0,0,0,0,0,0,0,0,0,0,0,0,0,0,0,0,0,0,0,0,0,0,0,0,0,0,0,0,0,0,0,0,0,0,0,0,0,0,0,0,0,0,0,-1.2312,-1.2312,0,-1.2249,-1.2249,-1.2248,-1.2325,-1.2328,-1.2331,-1.2334,-1.2254,-1.225,-1.2245,0,0,0,0,0,0,0,0,0,0,0,0,0,-1.2486,-1.2482,-1.2312,-1.2312,-1.2311,-1.225,-1.2249,-1.2248,-1.2325,-1.2328,-1.2332,-1.2335,-1.2256,-1.225,-1.2244,0,0,0,0,0,0,0,0,0,0,0,0,0,-1.2415,-1.2481,-1.2313,-1.2342,-1.2344,-1.225,-1.2249,-1.2247,-1.2324,-1.2328,-1.2333,-1.2337,-1.2258,-1.2251,-1.2244,-1.2112,0,0,-1.2221,-1.2218,0,0,0,0,0,0,0,0,-1.2419,-1.2408,-1.2339,-1.234,-1.2342,-1.23,-1.2281,-1.2201,-1.2323,-1.2331,-1.2334,-1.2339,-1.2265,-1.2257,-1.2236,-1.2108,-1.2105,-1.2221,-1.2216,-1.2213,-1.2211,0,0,0,0,0,0,0,-1.2423,-1.2411,-1.2287,-1.2338,-1.234,-1.2354,-1.2349,-1.2266,-1.2274,-1.2331,-1.2336,-1.2329,-1.2267,-1.2242,-1.2234,-1.2104,-1.2221,-1.2215,-1.221,-1.2207,-1.1863,-1.1858,0,0,0,0,0,0,-1.2427,-1.2415,-1.2289,-1.2285,-1.2393,-1.2348,-1.2342,-1.2309,-1.2275,-1.2275,-1.2325,-1.2333,-1.2253,-1.2243,-1.2232,-1.2074,-1.2213,-1.2207,-1.2202,-1.1868,-1.1862,-1.1857,0,0,0,0,0,0,-1.243,-1.2415,-1.2292,-1.2352,-1.2337,-1.234,-1.2302,-1.2305,-1.2281,-1.2271,-1.2271,-1.23,-1.2256,-1.2242,-1.2142,-1.2072,-1.2203,-1.2197,-1.1873,-1.1866,-1.1859,-1.1757,0,0,0,0,0,0,-1.2435,-1.2416,-1.2369,-1.235,-1.2334,-1.2206,-1.2298,-1.2301,-1.227,-1.228,-1.2247,-1.2246,-1.2258,-1.2152,-1.2135,-1.2064,-1.2191,-1.1879,-1.187,-1.1861,-1.1767,-1.1748,-1.1731,0,0,0,0,0,-1.2441,-1.234,-1.2366,-1.2351,-1.2276,-1.2202,-1.2192,-1.2213,-1.2265,-1.2215,-1.2209,-1.2247,-1.2084,-1.2141,-1.2122,-1.2049,-1.1884,-1.1873,-1.1862,-1.1775,-1.1751,-1.1732,0,0,0,0,0,0,-1.2345,-1.2338,-1.2367,-1.2258,-1.2231,-1.2216,-1.2154,-1.2187,-1.2141,-1.2151,-1.2173,-1.2165,-1.2058,-1.2044,-1.2109,-1.1919,-1.1991,-1.1976,-1.1932,-1.1909,-1.1892,-1.1895,-1.2185,0,0,0,0,0,-1.2312,-1.2258,-1.2253,-1.2156,-1.2142,-1.215,-1.2119,-1.2138,-1.2108,-1.2095,-1.2082,-1.2047,-1.1988,-1.1948,-1.1894,-1.1767,-1.1758,-1.1706,-1.1688,-1.1674,-1.1659,-1.1588,-1.1564,-1.1821,-1.1821,-1.1821,0,0,-1.2241,-1.2231,-1.2194,-1.2137,-1.2118,-1.2057,-1.214,-1.2071,-1.2024,-1.2083,-1.1989,-1.1977,-1.1941,-1.1826,-1.1775,-1.181,-1.1587,-1.166,-1.1648,-1.1641,-1.1574,-1.155,-1.1528,-1.1814,-1.1815,-1.1816,0,0,-1.2081,-1.2069,-1.1988,-1.1968,-1.1941,-1.1947,-1.1927,-1.1908,-1.1904,-1.1811,-1.1854,-1.1796,-1.1694,-1.1666,-1.1638,-1.1469,-1.15,-1.145,-1.1354,-1.1285,-1.1265,-1.1247,-1.1183,-1.116,-1.1436,-1.1436,-1.1436,0,-1.1994,-1.1909,-1.194,-1.1869,-1.1841,-1.1898,-1.1812,-1.179,-1.1743,-1.172,-1.1763,-1.1637,-1.1616,-1.1495,-1.1454,-1.143,-1.1405,-1.1452,-1.1266,-1.1248,-1.1232,-1.1171,-1.1147,-1.143,-1.143,-1.1431,-1.1431,0,-1.1803,-1.1742,-1.1679,-1.1638,-1.1603,-1.1525,-1.154,-1.15,-1.1522,-1.1522,-1.1425,-1.1403,-1.1344,-1.1317,-1.1335,-1.1197,-1.122,-1.1264,-1.1337,-1.1201,-1.1144,-1.1121,-1.1421,-1.1423,-1.1425,-1.1426,0,0,-1.1576,-1.1557,-1.1532,-1.1514,-1.1489,-1.144,-1.1363,-1.1311,-1.1274,-1.1241,-1.1173,-1.1088,-1.1129,-1.1097,-1.1113,-1.1052,-1.0916,-1.1103,-1.1103,-1.1066,-1.0758,-1.0722,-1.0695,-1.0939,-1.0935,-1.0931,-1.076,0,-1.1414,-1.1287,-1.1313,-1.1185,-1.1128,-1.1182,-1.1114,-1.1088,-1.1087,-1.1034,-1.1031,-1.0968,-1.1029,-1.101,-1.0953,-1.0945,-1.0853,-1.0958,-1.0871,-1.0868,-1.0875,-1.0666,-1.0628,-1.0467,-1.0738,-1.0734,-1.0732,0,-1.1207,-1.1171,-1.1039,-1.1023,-1.1,-1.0939,-1.0893,-1.0844,-1.0814,-1.0817,-1.0783,-1.0811,-1.0729,-1.0807,-1.0692,-1.0762,-1.0729,-1.0719,-1.0713,-1.0703,-1.0789,-1.0646,-1.0417,-1.0391,-1.0697,-1.07,-1.0703,0,-1.1051,-1.0969,-1.088,-1.0863,-1.0843,-1.0799,-1.0787,-1.0763,-1.0729,-1.0687,-1.0665,-1.0612,-1.0582,-1.0538,-1.0549,-1.0605,-1.043,-1.0509,-1.0425,-1.0425,-1.0383,-1.0385,-1.0142,-1.0367,-1.0368,-1.0368,-1.0369,0,-1.0865,-1.0781,-1.081,-1.0754,-1.0661,-1.0691,-1.0596,-1.059,-1.0568,-1.0509,-1.0551,-1.0493,-1.0513,-1.0455,-1.0462,-1.0364,-1.0351,-1.0347,-1.0349,-1.0342,-1.0341,-1.0317,-1.0327,-1.0362,-1.0363,-1.0364,-1.0365,0,-1.0674,-1.0691,-1.0596,-1.0587,-1.0582,-1.0513,-1.0502,-1.0448,-1.0452,-1.0375,-1.0359,-1.0362,-1.0296,-1.0304,-1.0228,-1.0233,-1.0111,-1.0128,-1.0122,-1.0124,-1.0039,-1.0045,-0.9768,-0.9732,-0.9984,-0.9982,-0.998,0,-1.0552,-1.049,-1.0475,-1.0441,-1.0428,-1.0372,-1.034,-1.0365,-1.0329,-1.0291,-1.024,-1.0179,-1.0131,-1.0022,-1.0014,-0.9956,-0.997,-0.9877,-0.9961,-0.9954,-0.9964,-0.9966,-0.9958,-0.9859,-0.9856,-0.9854,-0.9852,0,-1.0334,-1.0346,-1.03,-1.0257,-1.0218,-1.0184,-1.0153,-1.0122,-1.0144,-1.01,-1.0036,-0.9999,-0.9925,-0.9862,-0.9807,-0.979,-0.9821,-0.9826,-0.9803,-0.9792,-0.979,-0.9787,-1.0072,-0.9831,-0.9833,-0.9835,-0.9836,-0.9837,-1.0171,-1.0118,-1.01,-1.0047,-1.0028,-0.9999,-0.9947,-0.9946,-0.9895,-0.984,-0.9857,-0.9783,-0.9753,-0.9684,-0.9662,-0.96,-0.9634,-0.9601,-0.9592,-0.9582,-0.9571,-0.9804,-0.9591,-0.9591,-0.9592,-0.9592,-0.9593,0,-0.9952,-0.9944,-0.9896,-0.9854,-0.9811,-0.9853,-0.9821,-0.9781,-0.9717,-0.969,-0.9643,-0.9568,-0.9507,-0.9496,-0.9437,-0.939,-0.9403,-0.9373,-0.9374,-0.9369,-0.9546,-0.9571,-0.9363,-0.9363,-0.9363,-0.9363,-0.9363,-0.9364,-0.9833,-0.9745,-0.9754,-0.9655,-0.9647,-0.9579,-0.9557,-0.9528,-0.9506,-0.9422,-0.9374,-0.9369,-0.9346,-0.9287,-0.9231,-0.9229,-0.9203,-0.9167,-0.9169,-0.9334,-0.9357,-0.9379,-0.9402,-0.9162,-0.9161,-0.8997,-0.8995,-0.8994]},{"header":{"parameterUnit":"m.s-1","parameterCategory":1,"la1":30.2991,"la2":30.254,"lo1":-89.0895,"lo2":-89.0444,"dy":0.0017,"dx":0.0017,"nx":28,"ny":28,"refTime":"2025-08-29T03:00:00:Z","depth":0,"parameterNumber":3,"parameterNumberName":"V-component_of_WINDS"},"data":[0,0,0,0,0,0,0,0,0,0,0,0,0,0,0,0,0,0,0,0,0,0,0,0,0,0,0,0,0,0,0,0,0,0,0,0,0,0,0,0,0,0,0,0,0,0,0,0,0,0,0,0,0,0,0,0,0,0,-0.9388,-0.939,0,-0.9605,-0.9608,-0.961,-0.9753,-0.9754,-0.9755,-0.9756,-0.9973,-0.9978,-0.9983,0,0,0,0,0,0,0,0,0,0,0,0,0,-0.9087,-0.9092,-0.9387,-0.939,-0.9393,-0.9605,-0.9608,-0.9611,-0.9753,-0.9754,-0.9755,-0.9756,-0.9972,-0.9977,-0.9983,0,0,0,0,0,0,0,0,0,0,0,0,0,-0.9252,-0.9093,-0.9387,-0.9489,-0.9501,-0.9604,-0.9608,-0.9612,-0.9753,-0.9754,-0.9755,-0.9757,-0.997,-0.9977,-0.9984,-1.0001,0,0,-1.0007,-1.001,0,0,0,0,0,0,0,0,-0.9243,-0.9263,-0.9472,-0.9482,-0.9495,-0.9654,-0.9582,-0.9742,-0.9752,-0.9657,-0.9756,-0.9757,-0.9865,-0.9881,-0.9919,-1.0011,-1.0021,-1.0007,-1.0012,-1.0015,-1.0017,0,0,0,0,0,0,0,-0.9231,-0.9254,-0.9473,-0.9474,-0.9489,-0.9522,-0.9547,-0.9613,-0.975,-0.9665,-0.9676,-0.97,-0.9872,-0.9911,-0.9925,-1.0024,-1.0007,-1.0014,-1.0018,-1.0021,-1.0137,-1.0136,0,0,0,0,0,0,-0.9204,-0.9244,-0.9467,-0.948,-0.937,-0.9526,-0.9554,-0.9601,-0.975,-0.9774,-0.9699,-0.9706,-0.9898,-0.9916,-0.9933,-0.9961,-1.0015,-1.0022,-1.0026,-1.0139,-1.0137,-1.0136,0,0,0,0,0,0,-0.9197,-0.9223,-0.9458,-0.9365,-0.9398,-0.953,-0.9581,-0.9605,-0.9645,-0.9775,-0.98,-0.9714,-0.99,-0.9923,-0.9983,-0.997,-1.0025,-1.0032,-1.014,-1.0138,-1.0136,-1.0017,0,0,0,0,0,0,-0.9188,-0.9219,-0.9229,-0.9364,-0.9402,-0.9505,-0.9581,-0.9608,-0.9657,-0.9669,-0.9796,-0.9819,-0.9903,-0.9971,-0.999,-0.9981,-1.0038,-1.0142,-1.0139,-1.0137,-1.0022,-1.0011,-1.0001,0,0,0,0,0,-0.9177,-0.9187,-0.9229,-0.9255,-0.9417,-0.9505,-0.9526,-0.9624,-0.9656,-0.9665,-0.9749,-0.9815,-0.9969,-0.9976,-0.9999,-0.9992,-1.0143,-1.014,-1.0137,-1.0027,-1.0013,-1.0001,0,0,0,0,0,0,-0.9046,-0.9206,-0.9255,-0.9309,-0.9392,-0.9529,-0.9544,-0.9607,-0.9681,-0.9688,-0.9805,-0.9833,-0.988,-0.9942,-0.9948,-1.0014,-1.0063,-1.0065,-0.9972,-0.996,-0.9949,-0.9932,-1.0044,0,0,0,0,0,-0.9023,-0.9083,-0.9219,-0.9253,-0.9293,-0.941,-0.9452,-0.952,-0.961,-0.9646,-0.9734,-0.9817,-0.9884,-0.9926,-0.9995,-1.0032,-1.006,-1.0038,-1.0027,-1.0018,-1.0017,-1.0038,-1.0029,-1.0126,-1.0126,-1.0126,0,0,-0.8977,-0.9072,-0.9102,-0.9229,-0.9302,-0.9358,-0.9439,-0.9496,-0.9538,-0.9654,-0.9716,-0.9783,-0.9883,-0.993,-0.9956,-0.9984,-0.9997,-1.0014,-1.0006,-1.0011,-1.0034,-1.0025,-1.0016,-1.0124,-1.0124,-1.0124,0,0,-0.8921,-0.9001,-0.9037,-0.9107,-0.9216,-0.9294,-0.9302,-0.9428,-0.9478,-0.9542,-0.9629,-0.9679,-0.9793,-0.986,-0.9908,-0.9874,-0.9936,-0.9893,-0.9837,-0.9856,-0.9848,-0.9842,-0.9827,-0.982,-0.9892,-0.9892,-0.9892,0,-0.885,-0.8941,-0.9047,-0.9098,-0.915,-0.9258,-0.9293,-0.9356,-0.948,-0.9512,-0.9542,-0.9685,-0.976,-0.9823,-0.9814,-0.9851,-0.9862,-0.9879,-0.9841,-0.9836,-0.9832,-0.9818,-0.9813,-0.9886,-0.9887,-0.9887,-0.9888,0,-0.8846,-0.8907,-0.8922,-0.904,-0.9094,-0.9137,-0.9246,-0.9287,-0.935,-0.9423,-0.9485,-0.9578,-0.9667,-0.9687,-0.9749,-0.9758,-0.9771,-0.9819,-0.9871,-0.9814,-0.9804,-0.98,-0.9877,-0.9879,-0.9881,-0.9883,0,0,-0.8715,-0.889,-0.8893,-0.8947,-0.9073,-0.9121,-0.9167,-0.9255,-0.9286,-0.9367,-0.9406,-0.9499,-0.9543,-0.9598,-0.9668,-0.9685,-0.9647,-0.9731,-0.9735,-0.971,-0.9659,-0.962,-0.9613,-0.969,-0.9689,-0.9689,-0.965,0,-0.8676,-0.8767,-0.8862,-0.8918,-0.8973,-0.9075,-0.9115,-0.9195,-0.9264,-0.9319,-0.9395,-0.9457,-0.9513,-0.9546,-0.9567,-0.9647,-0.9638,-0.9652,-0.9724,-0.9725,-0.9694,-0.9608,-0.9569,-0.9527,-0.9646,-0.9646,-0.9645,0,-0.8645,-0.8721,-0.8782,-0.8901,-0.8928,-0.8962,-0.9048,-0.91,-0.9191,-0.924,-0.93,-0.9374,-0.9424,-0.9469,-0.9538,-0.9544,-0.9579,-0.9623,-0.9623,-0.9633,-0.9681,-0.9612,-0.9517,-0.9509,-0.9641,-0.9641,-0.9641,0,-0.8539,-0.8658,-0.871,-0.8752,-0.8892,-0.8913,-0.8972,-0.9065,-0.911,-0.9184,-0.9214,-0.9293,-0.9335,-0.9392,-0.9484,-0.9509,-0.9541,-0.9595,-0.958,-0.9578,-0.9582,-0.958,-0.9488,-0.9607,-0.9607,-0.9607,-0.9607,0,-0.8486,-0.8519,-0.8664,-0.8695,-0.8733,-0.8841,-0.8875,-0.8943,-0.9023,-0.9067,-0.916,-0.9198,-0.9318,-0.937,-0.9442,-0.9485,-0.9504,-0.9543,-0.9561,-0.9534,-0.9528,-0.9557,-0.9561,-0.9606,-0.9606,-0.9606,-0.9607,0,-0.8375,-0.8474,-0.8536,-0.8663,-0.8695,-0.8717,-0.8825,-0.8857,-0.8931,-0.8985,-0.9003,-0.9118,-0.9183,-0.9281,-0.9375,-0.9423,-0.9454,-0.9486,-0.9424,-0.9434,-0.9413,-0.9412,-0.9335,-0.9328,-0.9452,-0.9451,-0.945,0,-0.8334,-0.8361,-0.849,-0.8527,-0.8583,-0.8641,-0.8687,-0.8793,-0.8837,-0.8941,-0.8959,-0.9032,-0.9096,-0.9195,-0.9285,-0.9356,-0.9389,-0.9356,-0.94,-0.937,-0.9385,-0.9381,-0.9383,-0.9345,-0.9343,-0.9342,-0.9341,0,-0.8248,-0.8295,-0.836,-0.844,-0.8493,-0.8561,-0.8634,-0.8658,-0.8778,-0.8822,-0.8891,-0.894,-0.9036,-0.9105,-0.9189,-0.9247,-0.9312,-0.9326,-0.9326,-0.9297,-0.9259,-0.9277,-0.9393,-0.9327,-0.9329,-0.933,-0.933,-0.9331,-0.817,-0.8198,-0.8292,-0.836,-0.8425,-0.849,-0.8525,-0.8603,-0.8662,-0.875,-0.8808,-0.8871,-0.8958,-0.9078,-0.9131,-0.9181,-0.9209,-0.921,-0.921,-0.9207,-0.9196,-0.9252,-0.9197,-0.9197,-0.9198,-0.9198,-0.9199,0,-0.8087,-0.8153,-0.8214,-0.8312,-0.8363,-0.8423,-0.8505,-0.8543,-0.8599,-0.8675,-0.8736,-0.8812,-0.8879,-0.8973,-0.9047,-0.9068,-0.9099,-0.9083,-0.9082,-0.9093,-0.9168,-0.916,-0.9056,-0.9056,-0.9056,-0.9056,-0.9056,-0.9056,-0.805,-0.81,-0.8157,-0.8237,-0.8303,-0.8367,-0.8408,-0.8467,-0.8528,-0.8609,-0.8666,-0.8727,-0.881,-0.8889,-0.8952,-0.8978,-0.8999,-0.8973,-0.9007,-0.9075,-0.9088,-0.9101,-0.9093,-0.8977,-0.8977,-0.8928,-0.8928,-0.8927]}]]